Skip Navigation Links
NOAA logo - Click to go to the NOAA homepage
NOAA's National Weather Service
Alaska Aviation Weather Unit
  NWS logo - Click to go to the NWS homepage
Left Navbar Graphic     09 AKDT = 17 GMT

   
NOAA is celebrating 200 years of science, service, and stewardship. Visit the NOAA 200th celebration Web site to learn more.
USA.gov is the U.S. Government's official Web portal to all Federal, state and local government Web resources and services.
Facebook
NWS on Facebook

Important Change Regarding the AAWU Web Presence

 

Over the last several months, the AAWU has been working to navigate its webpages to a nationally supported server. Security, as well as other needs, have necessitated the change.  In the process, we have made an effort to enhance the functionality of our website, as well as some of our products. As of June 20, 2017, aawu.arh.noaa.gov will be discontinued. The new AAWU web address is weather.gov/aawu. It is now live and will run in-parallel with the old site until it is discontinued. Please send any feedback or questions regarding the new webpages to nws.ar.aawu.webauthors@noaa.gov.  Thank you for your patience during this time of transition.
AAWU Home :: Display TAF Add Bookmark
TAF PAOT 271124Z 2712/2812 15015KT P6SM BKN050 BKN100 BKN200
     FM280300 15012KT P6SM SCT050 BKN100 BKN200=
METAR PAOT 271153Z 12013KT 10SM -RA OVC060 03/01 A2989=

METAR PAOT 271253Z 11009KT 10SM -RA SCT047 OVC060 02/01 A2989=

METAR PAOT 271353Z 13011KT 10SM -RA BKN048 OVC065 03/01 A2990=

METAR PAOT 271453Z AUTO 12013KT 10SM BKN038 OVC049 03/01 A2991=

METAR PAOT 271553Z 12013KT 10SM SCT036 BKN080 04/01 A2991=

METAR PAOT 271653Z 13013KT 10SM BKN065 04/01 A2992=


NOAA's National Weather Service
Alaska Aviation Weather Unit
6930 Sand Lake Road
Anchorage, AK 99502-1845
Disclaimer
Credits
Glossary
Privacy Policy
About Us
Career Opportunities
Contact AAWU Internet Services Site last modified: April, 17th 2012